SWR40 LSZH-KLAX

Flight info

Callsign SWR40
Flight time N/A
Altitude 30000
Route VEBIT T10 TORPA DCT REKLA/N0484F320 DCT RLP DCT ROTSI DCT KOTUN DCT AMAXA DCT VESAN DCT RATUK DCT SOVAT L613 SANDY DCT OKSAW DCT TEWXI DCT LIPGO DCT REVNU DCT ETARI/M083F320 DCT 5630N02000W 59N030W/M083F340 60N040W 60N050W DCT PIDSO DCT MIBNO/N0476F340 DCT JELCO DCT KELMU/N0487F360 DCT 57N090W 55N095W DCT YDN DCT ISN DCT BPI DCT BERYL DCT LAKRR Q73 HAKMN/N0480F400 ANJLL4
Aircraft B77W/H-SDE1E2E3FGHIJ2J3J4J5M1RWXY/LB1D1

Departure

Time N/A
Airport Zürich Airport (LSZH)

Arrival

Time 2026-05-03 22:49
Airport Los Angeles International Airport (KLAX)
Time Latitude Longitude Altitude Speed Heading
2026-05-03 22:34 34.13344 -117.26819 17935 ft 303 kts 249°
2026-05-03 22:34 34.12680 -117.29230 17485 ft 302 kts 249°
2026-05-03 22:35 34.12018 -117.31632 17044 ft 302 kts 249°
2026-05-03 22:35 34.11356 -117.34032 16619 ft 300 kts 249°
2026-05-03 22:35 34.10697 -117.36416 16206 ft 299 kts 249°
2026-05-03 22:35 34.10067 -117.38804 15791 ft 298 kts 250°
2026-05-03 22:36 34.09472 -117.41201 15396 ft 298 kts 250°
2026-05-03 22:36 34.08882 -117.43591 15002 ft 297 kts 250°
2026-05-03 22:36 34.08288 -117.45973 14622 ft 297 kts 250°
2026-05-03 22:36 34.07687 -117.48372 14261 ft 301 kts 250°
2026-05-03 22:37 34.07104 -117.50825 13837 ft 307 kts 254°
2026-05-03 22:37 34.06681 -117.53367 13428 ft 310 kts 257°
2026-05-03 22:37 34.06326 -117.55930 13012 ft 309 kts 257°
2026-05-03 22:37 34.05983 -117.58475 12629 ft 307 kts 257°
2026-05-03 22:38 34.05635 -117.60999 12249 ft 305 kts 257°
2026-05-03 22:38 34.05282 -117.63513 11875 ft 303 kts 257°
2026-05-03 22:38 34.04924 -117.66008 11500 ft 301 kts 257°
2026-05-03 22:38 34.04564 -117.68488 11140 ft 300 kts 257°
2026-05-03 22:39 34.04202 -117.70960 10820 ft 298 kts 256°
2026-05-03 22:39 34.03841 -117.73414 10498 ft 297 kts 256°
2026-05-03 22:39 34.03479 -117.75857 10156 ft 295 kts 256°
2026-05-03 22:39 34.03119 -117.78284 9895 ft 291 kts 256°
2026-05-03 22:40 34.02769 -117.80644 9766 ft 282 kts 256°
2026-05-03 22:40 34.02430 -117.82937 9573 ft 273 kts 256°
2026-05-03 22:40 34.02103 -117.85136 9067 ft 263 kts 256°
2026-05-03 22:40 34.01775 -117.87314 8333 ft 263 kts 256°
2026-05-03 22:41 34.01449 -117.89483 8001 ft 263 kts 256°
2026-05-03 22:41 34.01121 -117.91659 7625 ft 264 kts 256°
2026-05-03 22:41 34.00795 -117.93831 7294 ft 263 kts 256°
2026-05-03 22:41 34.00470 -117.95988 6973 ft 262 kts 256°
2026-05-03 22:42 34.00146 -117.98143 6653 ft 261 kts 256°
2026-05-03 22:42 33.99823 -118.00287 6319 ft 260 kts 257°
2026-05-03 22:42 33.99501 -118.02428 5988 ft 259 kts 256°
2026-05-03 22:42 33.99188 -118.04510 5651 ft 255 kts 256°
2026-05-03 22:43 33.98841 -118.06601 5311 ft 243 kts 255°
2026-05-03 22:43 33.98510 -118.08582 5058 ft 239 kts 258°
2026-05-03 22:43 33.98264 -118.10534 4917 ft 230 kts 261°
2026-05-03 22:43 33.98060 -118.12440 4675 ft 231 kts 261°
2026-05-03 22:44 33.97862 -118.14368 4337 ft 231 kts 261°
2026-05-03 22:44 33.97665 -118.16287 4040 ft 231 kts 261°
2026-05-03 22:44 33.97470 -118.18203 3706 ft 227 kts 261°
2026-05-03 22:44 33.97285 -118.20021 3428 ft 213 kts 260°
2026-05-03 22:45 33.97108 -118.21735 3129 ft 199 kts 261°
2026-05-03 22:45 33.96944 -118.23334 2898 ft 184 kts 260°
2026-05-03 22:45 33.96793 -118.24805 2633 ft 170 kts 260°
2026-05-03 22:45 33.96648 -118.26199 2432 ft 168 kts 261°
2026-05-03 22:46 33.96505 -118.27589 2209 ft 167 kts 262°
2026-05-03 22:46 33.96368 -118.28945 1984 ft 158 kts 261°
2026-05-03 22:46 33.96240 -118.30195 1795 ft 142 kts 261°
2026-05-03 22:46 33.96119 -118.31362 1612 ft 142 kts 260°
2026-05-03 22:47 33.95998 -118.32536 1418 ft 139 kts 259°
2026-05-03 22:47 33.95878 -118.33681 1213 ft 140 kts 258°
2026-05-03 22:47 33.95757 -118.34841 1046 ft 139 kts 261°
2026-05-03 22:47 33.95641 -118.36012 845 ft 140 kts 261°
2026-05-03 22:48 33.95518 -118.37167 646 ft 139 kts 263°
2026-05-03 22:48 33.95406 -118.38293 435 ft 129 kts 262°
2026-05-03 22:48 33.95298 -118.39324 270 ft 123 kts 262°
2026-05-03 22:48 33.95191 -118.40363 119 ft 127 kts 263°
2026-05-03 22:49 33.95093 -118.41344 101 ft 100 kts 263°
2026-05-03 22:49 33.95031 -118.41946 98 ft 48 kts 263°
2026-05-03 22:49 33.94996 -118.42234 99 ft 25 kts 256°
2026-05-03 22:49 33.94935 -118.42378 101 ft 11 kts 230°
2026-05-03 22:50 33.94905 -118.42418 102 ft 5 kts 226°
2026-05-03 22:50 33.94883 -118.42443 102 ft 4 kts 222°
2026-05-03 22:50 33.94864 -118.42464 104 ft 4 kts 218°
2026-05-03 22:50 33.94817 -118.42483 104 ft 14 kts 189°
2026-05-03 22:51 33.94716 -118.42479 103 ft 15 kts 173°
2026-05-03 22:51 33.94620 -118.42464 100 ft 12 kts 162°
2026-05-03 22:51 33.94589 -118.42389 102 ft 12 kts 92°
2026-05-03 22:51 33.94600 -118.42286 99 ft 13 kts 82°
2026-05-03 22:52 33.94611 -118.42177 100 ft 13 kts 83°
2026-05-03 22:52 33.94621 -118.42068 98 ft 14 kts 83°
2026-05-03 22:52 33.94628 -118.41951 101 ft 14 kts 91°
2026-05-03 22:52 33.94636 -118.41832 98 ft 14 kts 83°
2026-05-03 22:53 33.94648 -118.41712 98 ft 14 kts 83°
2026-05-03 22:53 33.94660 -118.41592 101 ft 14 kts 83°
2026-05-03 22:53 33.94673 -118.41473 99 ft 14 kts 83°
2026-05-03 22:53 33.94639 -118.41375 99 ft 14 kts 161°
2026-05-03 22:54 33.94539 -118.41360 100 ft 15 kts 169°
2026-05-03 22:54 33.94480 -118.41270 101 ft 15 kts 131°
2026-05-03 22:54 33.94384 -118.41236 98 ft 15 kts 173°
2026-05-03 22:54 33.94282 -118.41222 98 ft 15 kts 173°
2026-05-03 22:55 33.94180 -118.41207 100 ft 15 kts 173°
2026-05-03 22:55 33.94078 -118.41191 99 ft 15 kts 173°
2026-05-03 22:55 33.93980 -118.41176 99 ft 12 kts 173°
2026-05-03 22:55 33.93939 -118.41144 100 ft 7 kts 104°
2026-05-03 22:56 33.93942 -118.41082 102 ft 7 kts 84°
2026-05-03 22:56 33.93944 -118.41055 99 ft 1 kts 83°
2026-05-03 22:56 33.93944 -118.41054 98 ft 0 kts 83°